SCP
0 0 0 0 0 0 0 0 0 0 0 0 0 0 0 0 0 0 0 0 0 0 0 0 0 0 0 0 0 0 0 0 0 0 0 0 0 0 0 0 0 0 0
0 0 0 0 0 0 0 0 0 0 0 0 0 0 0 0 0 0 0 0 0 0 0 0 0 0 0 0 0 0 0 0 0 0 0 0 0 0 0 0 0 0 0
0 0 0 0 0 0 0 0 0 0 0 0 0 0 0 0 0 0 0 0 0 0 0 0 0 0 0 0 0 0 0 0 0 0 0 0 0 0 0 0 0 0 0
0 0 0 0 0 0 0 0 0 0 0 0 0 0 0 0 0 0 0 0 0 0 0 0 0 0 0 0 0 0 0 0 0 0 0 0 0 0 0 0 0 0 0
0 0 0 0 0 0 0 0 0 0 0 0 0 0 0 0 0 0 0 0 0 0 0 0 0 0 0 0 0 0 0 0 0 0 0 0 0 0 0 0 0 0 0
0 0 0 0 0 0 0 0 0 0 0 0 0 0 0 0 0 0 0 0 0 0 0 0 0 0 0 0 0 0 0 0 0 0 0 0 0 0 0 0 0 0 0
0 0 0 0 0 0 0 0 0 0 0 0 0 0 0 0 0 0 0 0 0 0 0 0 0 0 0 0 0 0 0 0 0 0 0 0 0 0 0 0 0 0 0
0 0 0 0 0 0 0 0 0 0 0 0 0 0 0 0 0 0 0 0 0 0 0 0 0 0 0 0 0 0 0 0 0 0 0 0 0 0 0 0 0 0 0
0 0 0 0 0 0 0 0 0 0 0 0 0 0 0 0 0 0 0 0 0 0 0 0 0 0 0 0 0 0 0 0 0 0 0 0 0 0 0 0 0 0 0
0 0 0 0 0 0 0 0 0 0 0 0 0 0 0 0 0 0 0 0 0 0 0 0 0 0 0 0 0 0 0 0 0 0 0 0 0 0 0 0 0 0 0
0 0 0 0 0 0 0 0 0 0 0 0 0 0 0 0 0 0 0 0 0 0 0 0 0 0 0 0 0 0 0 0 0 0 0 0 0 0 0 0 0 0 0
0 0 0 -0 -0 -0 -0 0 0 0 0 0 0 0 0 0 0 0 0 0 0 0 0 0 0 0 0 0 0 0 0 0 0 0 0 0 0 0 0 0 0 0 0
0 0 0 0 -0 -0 0 0 0 0 0 0 0 0 0 0 0 0 0 0 0 0 0 0 0 0 0 0 0 0 0 0 0 0 0 0 0 0 0 0 0 0 0
0 0 0 0 0 0 0 0 0 0 0 0 0 0 0 0 0 0 0 0 0 0 0 0 0 0 0 0 0 0 0 0 0 0 0 0 0 0 0 0 0 0 0
0 0 0 0 0 0 0 0 0 0 0 0 0 0 0 0 0 0 0 0 0 0 0 0 0 0 0 0 0 0 0 0 0 0 0 0 0 0 0 0 0 0 0
0 0 0 0 0 0 0 0 0 0 0 0 0 0 0 0 0 0 0 0 0 0 0 0 0 0 0 0 0 0 0 0 0 0 0 0 0 0 0 0 0 0 0
0 0 0 0 0 0 0 0 0 0 0 0 0 0 0 0 0 0 0 0 0 0 0 0 0 0 0 0 0 0 0 0 0 0 0 0 0 0 0 0 0 0 0
0 0 0 0 0 0 0 0 0 0 0 0 0 0 0 0 0 0 0 0 0 0 0 0 0 0 0 0 0 0 0 0 0 0 0 0 0 0 0 0 0 0 0
0 0 0 0 0 -0 -0 -0 0 0 0 0 0 0 0 0 0 0 0 0 0 0 0 0 0 0 0 0 0 0 0 0 0 0 0 0 0 0 0 0 0 0 0
0 0 0 0 0 0 0 -0 -0 -0 0 0 0 0 0 0 0 0 0 0 0 0 0 0 0 0 0 0 0 0 0 0 0 0 0 0 0 0 0 0 0 0 0
0 0 0 0 0 0 0 0 0 0 -0 0 0 0 0 0 0 0 0 0 0 0 0 0 0 0 0 0 0 0 0 0 0 0 0 0 0 0 0 0 0 0 0
0 0 0 0 0 0 0 0 0 0 0 0 0 0 0 0 0 0 0 0 0 0 0 0 0 0 0 0 0 0 0 0 0 0 0 0 0 0 0 0 0 0 0
0 0 0 0 0 0 0 0 0 0 0 0 0 0 0 0 0 0 0 0 0 0 0 0 0 0 0 0 0 0 0 0 0 0 0 0 0 0 0 0 0 0 0
0 0 0 0 0 0 0 0 0 0 0 0 0 0 0 0 0 0 0 0 0 0 0 0 0 0 0 0 0 0 0 0 0 0 0 0 0 0 0 0 0 0 0
0 0 0 0 0 0 0 0 0 0 0 0 0 0 0 0 0 0 0 0 0 0 0 0 0 0 0 0 0 0 0 0 0 0 0 0 0 0 0 0 0 0 0
0 0 0 0 0 0 0 0 0 0 0 0 0 0 0 0 0 0 0 0 0 0 0 0 0 0 0 0 0 0 0 0 0 0 0 0 0 0 0 0 0 0 0
Wind_Speed_500mb
29 33 34 37 40 45 47 48 49 54 54 55 55 56 56 51 50 46 44 42 43 45 43 41 38 36 40 35 29 26 28 22 26 26 15 12 13 14 13 11 9 10 11
35 36 38 41 48 50 54 57 61 61 62 61 59 58 53 53 54 55 49 47 46 43 43 41 36 32 35 35 35 32 25 23 20 15 18 9 5 7 6 16 8 12 15
46 45 42 44 44 45 53 53 62 63 64 64 63 65 66 65 60 58 55 49 45 43 40 39 35 35 36 33 34 32 27 24 21 21 16 7 6 4 13 3 10 15 18
50 49 45 43 39 47 52 58 61 65 66 67 67 68 69 66 62 56 57 49 44 43 40 38 39 41 39 40 36 31 30 27 21 19 17 24 24 8 9 14 18 22 28
29 32 33 34 41 48 55 66 68 66 69 68 64 68 70 66 47 59 52 49 46 43 41 38 37 37 40 39 35 31 30 27 25 26 21 21 22 21 25 23 23 25 30
13 18 24 29 33 35 41 50 59 62 64 68 67 67 66 63 65 59 52 47 46 43 40 38 38 38 40 37 35 32 29 27 26 25 24 23 18 17 24 25 26 32 35
18 21 25 26 29 34 35 41 48 56 58 64 63 62 62 60 59 54 49 47 45 42 41 39 38 38 37 36 35 31 28 26 26 25 26 24 26 27 31 35 36 29 32
10 16 20 25 30 38 42 42 44 43 51 55 57 58 57 56 56 51 47 47 44 42 41 40 39 37 37 35 32 31 29 28 26 25 25 25 26 27 29 31 31 26 28
9 15 20 24 26 29 33 38 40 39 44 44 47 51 51 50 48 47 46 47 47 45 42 41 40 39 36 35 35 33 31 29 28 27 27 27 27 28 29 30 30 29 17
14 19 23 27 31 34 36 36 37 38 37 40 42 43 43 44 44 46 48 49 47 45 44 44 44 43 41 40 39 37 35 33 32 32 32 31 31 31 31 30 30 29 31
12 19 26 32 34 35 33 33 33 32 32 34 37 41 43 44 47 49 50 49 49 49 50 49 49 48 46 44 42 40 39 38 38 38 38 37 35 34 32 31 30 28 27
8 16 28 35 38 40 33 33 31 31 32 33 38 42 45 46 49 50 53 53 54 56 56 55 55 53 48 47 46 45 44 45 43 41 39 38 36 35 33 32 30 27 24
20 31 44 46 41 45 44 39 39 39 39 39 42 46 49 53 54 57 59 60 62 62 60 58 55 53 54 52 51 51 47 46 45 43 43 41 38 36 33 31 29 27 25
40 57 61 61 58 55 60 59 53 46 44 49 54 57 59 62 62 62 65 67 67 65 62 60 60 61 59 58 55 51 50 49 48 45 43 42 40 39 37 35 33 31 30
51 54 58 61 63 60 59 70 68 65 61 62 63 64 70 69 68 66 68 68 69 68 68 68 67 64 63 60 57 53 50 49 48 46 47 46 47 41 39 35 32 31 32
49 51 56 60 64 66 67 70 73 75 72 78 74 70 73 75 79 75 71 73 75 74 75 75 72 69 65 63 56 54 54 53 52 51 50 47 43 41 39 37 37 35 31
45 56 63 68 67 64 63 68 72 72 79 75 81 79 80 81 80 81 82 82 79 78 79 79 75 72 67 65 60 57 56 55 53 52 51 47 44 40 38 36 35 36 32
51 63 69 73 72 73 68 68 67 71 74 77 77 84 85 86 84 85 87 87 86 84 81 78 74 72 69 67 63 58 56 54 53 52 48 47 43 44 38 35 34 32 29
50 59 61 67 69 70 73 73 75 71 71 72 70 73 80 82 86 93 95 93 90 87 85 81 77 73 70 67 62 55 55 55 53 50 49 50 46 43 37 37 34 30 32
51 59 63 65 67 62 59 66 73 73 69 70 71 69 73 82 88 92 92 89 89 88 86 82 78 72 68 65 61 55 57 53 53 53 52 49 46 44 36 37 35 31 32
59 58 62 64 66 71 71 70 61 62 67 68 69 68 66 67 72 79 82 81 80 79 82 80 77 73 66 66 65 58 56 56 56 54 54 51 50 45 38 38 34 32 35
75 72 73 73 69 69 70 72 75 68 62 59 62 63 67 66 65 68 71 74 74 74 77 75 75 73 70 71 69 61 56 55 57 56 51 49 46 44 41 36 36 34 33
74 72 71 75 72 73 75 77 76 79 77 72 62 52 59 61 61 60 63 66 67 70 72 74 77 78 75 70 66 63 55 58 56 52 50 47 44 42 40 35 35 37 33
65 65 67 70 72 69 73 77 82 84 81 78 74 70 55 65 63 56 57 59 61 64 71 75 78 78 74 68 67 62 55 58 56 54 51 46 43 44 40 37 37 37 36
63 66 70 75 78 81 82 81 81 80 83 82 75 69 69 63 60 68 74 67 65 65 67 72 73 76 76 73 68 73 72 67 61 59 54 51 54 50 43 40 39 36 39
71 76 78 83 86 85 86 86 85 80 81 81 77 73 69 66 65 63 64 68 69 71 64 65 67 66 62 59 61 67 67 67 58 54 55 55 54 48 45 41 38 38 41
Wind_Direction_500mb
235 238 237 234 234 232 232 234 235 243 245 247 252 251 253 256 253 257 267 281 287 282 271 259 255 244 248 252 249 256 274 279 272 288 308 290 277 270 260 274 292 288 261
245 243 240 237 239 242 246 243 245 247 251 253 255 253 254 251 252 255 264 278 289 281 270 260 250 242 242 240 246 260 263 269 272 272 280 314 252 280 266 302 264 251 277
254 252 248 253 248 247 249 248 252 252 253 254 250 252 249 251 255 256 262 274 282 278 267 255 244 239 236 238 244 250 259 262 256 267 253 282 252 275 263 210 221 240 258
253 257 257 255 251 256 252 256 257 258 255 254 253 252 252 252 257 257 258 272 276 272 263 251 242 236 235 235 240 251 257 264 252 250 254 241 253 253 251 265 269 266 281
261 267 267 259 258 253 253 261 261 258 258 257 255 250 248 247 236 251 257 268 270 264 256 249 239 233 231 235 244 253 257 258 253 256 250 245 237 247 251 270 264 274 278
283 284 284 276 269 269 270 269 266 262 255 252 250 246 246 245 247 250 258 265 263 257 250 245 237 233 233 238 247 255 252 250 251 257 259 258 241 230 236 254 266 271 272
285 284 277 277 283 283 282 277 272 266 258 250 246 244 242 241 246 249 256 261 260 252 245 240 235 232 234 239 244 244 246 248 251 253 258 260 261 260 254 254 254 254 269
297 311 307 298 289 282 275 282 280 272 259 255 251 248 245 242 245 250 255 257 252 245 240 234 231 231 235 236 239 244 248 250 254 259 264 269 271 272 269 261 257 263 257
320 329 335 332 322 308 293 288 285 280 265 258 250 246 245 245 249 253 253 250 246 242 235 232 233 234 235 239 243 247 249 254 258 260 261 268 274 275 275 270 266 255 247
345 353 348 335 326 321 314 306 295 284 271 258 253 251 249 250 252 252 250 246 242 237 234 235 234 234 238 242 246 248 251 254 255 257 260 265 268 272 273 273 271 263 246
8 16 13 1 343 322 312 306 299 289 276 260 251 250 251 252 251 249 246 242 239 236 236 236 236 238 241 243 245 248 251 254 255 255 257 260 264 268 271 272 270 265 254
353 353 343 337 334 322 310 302 294 285 279 264 255 253 254 252 253 250 244 241 238 237 237 238 239 241 244 246 247 249 250 251 253 257 260 262 264 265 266 267 266 263 253
319 314 316 318 306 316 299 306 302 291 280 265 258 254 253 253 252 247 243 239 237 238 240 242 245 247 247 246 246 248 252 255 257 258 260 262 262 262 261 260 258 257 253
305 308 309 309 310 305 301 299 294 292 289 280 271 261 256 254 252 249 246 243 243 244 245 246 247 247 247 247 248 250 252 254 257 258 259 258 257 256 254 252 250 249 250
297 301 305 304 300 298 291 295 294 282 282 284 272 270 263 259 257 256 253 250 249 249 249 249 249 249 249 249 251 252 254 254 254 253 252 250 251 255 253 250 252 254 255
313 321 320 316 311 307 302 297 295 297 283 280 273 269 264 262 258 255 253 250 249 249 249 249 250 250 251 252 252 251 250 250 249 248 248 249 247 246 249 248 253 255 255
339 337 339 337 326 319 313 304 300 300 295 290 274 270 266 261 257 254 252 251 249 249 249 248 248 249 251 251 249 247 247 247 246 246 246 245 245 245 244 247 253 256 258
334 338 338 335 336 339 324 312 302 300 296 292 284 274 270 264 263 260 257 253 251 250 250 251 250 250 250 251 248 246 245 245 244 245 245 246 244 242 243 244 247 250 251
322 321 322 325 326 331 332 333 322 311 308 296 289 284 275 267 264 266 263 257 254 252 251 250 249 248 249 250 249 244 242 240 240 243 243 242 243 241 241 241 240 244 254
323 320 318 315 314 317 321 318 323 325 318 306 293 279 272 267 265 264 264 262 256 252 250 249 248 249 249 250 248 242 238 239 241 239 237 240 239 239 237 237 236 238 253
321 321 317 314 314 316 317 313 313 319 324 319 305 294 285 275 268 265 264 262 258 254 251 248 246 246 244 245 245 243 239 239 238 237 235 234 235 241 235 234 239 239 248
319 318 315 314 315 314 313 309 307 310 302 301 308 306 297 285 273 266 262 259 255 251 248 245 243 243 241 243 243 239 234 234 236 235 233 232 233 236 233 235 240 244 250
316 318 318 315 314 312 312 311 310 306 303 301 294 298 303 296 285 272 264 258 254 250 247 244 242 241 238 235 235 237 229 226 228 230 231 229 224 225 235 235 239 250 258
320 323 324 324 325 323 318 313 307 305 303 300 299 291 280 284 293 282 270 262 257 254 251 246 242 241 238 233 230 228 221 222 220 222 223 224 217 220 231 232 242 254 259
322 323 322 320 320 319 318 317 313 306 302 299 296 291 286 278 266 264 273 275 271 265 258 259 254 248 244 239 237 234 227 227 223 219 214 211 211 217 227 231 242 252 260
318 317 315 313 312 310 308 307 306 304 300 298 297 292 287 281 276 269 262 257 257 257 250 248 248 250 250 247 240 232 228 227 225 217 212 214 222 226 234 239 247 252 255
Wind_Speed_850mb
29 33 34 37 40 45 47 48 49 54 54 55 55 56 56 51 50 46 44 42 43 45 43 41 38 36 40 35 29 26 28 22 26 26 15 12 13 14 13 11 9 10 11
35 36 38 41 48 50 54 57 61 61 62 61 59 58 53 53 54 55 49 47 46 43 43 41 36 32 35 35 35 32 25 23 20 15 18 9 5 7 6 16 8 12 15
46 45 42 44 44 45 53 53 62 63 64 64 63 65 66 65 60 58 55 49 45 43 40 39 35 35 36 33 34 32 27 24 21 21 16 7 6 4 13 3 10 15 18
50 49 45 43 39 47 52 58 61 65 66 67 67 68 69 66 62 56 57 49 44 43 40 38 39 41 39 40 36 31 30 27 21 19 17 24 24 8 9 14 18 22 28
29 32 33 34 41 48 55 66 68 66 69 68 64 68 70 66 47 59 52 49 46 43 41 38 37 37 40 39 35 31 30 27 25 26 21 21 22 21 25 23 23 25 30
13 18 24 29 33 35 41 50 59 62 64 68 67 67 66 63 65 59 52 47 46 43 40 38 38 38 40 37 35 32 29 27 26 25 24 23 18 17 24 25 26 32 35
18 21 25 26 29 34 35 41 48 56 58 64 63 62 62 60 59 54 49 47 45 42 41 39 38 38 37 36 35 31 28 26 26 25 26 24 26 27 31 35 36 29 32
10 16 20 25 30 38 42 42 44 43 51 55 57 58 57 56 56 51 47 47 44 42 41 40 39 37 37 35 32 31 29 28 26 25 25 25 26 27 29 31 31 26 28
9 15 20 24 26 29 33 38 40 39 44 44 47 51 51 50 48 47 46 47 47 45 42 41 40 39 36 35 35 33 31 29 28 27 27 27 27 28 29 30 30 29 17
14 19 23 27 31 34 36 36 37 38 37 40 42 43 43 44 44 46 48 49 47 45 44 44 44 43 41 40 39 37 35 33 32 32 32 31 31 31 31 30 30 29 31
12 19 26 32 34 35 33 33 33 32 32 34 37 41 43 44 47 49 50 49 49 49 50 49 49 48 46 44 42 40 39 38 38 38 38 37 35 34 32 31 30 28 27
8 16 28 35 38 40 33 33 31 31 32 33 38 42 45 46 49 50 53 53 54 56 56 55 55 53 48 47 46 45 44 45 43 41 39 38 36 35 33 32 30 27 24
20 31 44 46 41 45 44 39 39 39 39 39 42 46 49 53 54 57 59 60 62 62 60 58 55 53 54 52 51 51 47 46 45 43 43 41 38 36 33 31 29 27 25
40 57 61 61 58 55 60 59 53 46 44 49 54 57 59 62 62 62 65 67 67 65 62 60 60 61 59 58 55 51 50 49 48 45 43 42 40 39 37 35 33 31 30
51 54 58 61 63 60 59 70 68 65 61 62 63 64 70 69 68 66 68 68 69 68 68 68 67 64 63 60 57 53 50 49 48 46 47 46 47 41 39 35 32 31 32
49 51 56 60 64 66 67 70 73 75 72 78 74 70 73 75 79 75 71 73 75 74 75 75 72 69 65 63 56 54 54 53 52 51 50 47 43 41 39 37 37 35 31
45 56 63 68 67 64 63 68 72 72 79 75 81 79 80 81 80 81 82 82 79 78 79 79 75 72 67 65 60 57 56 55 53 52 51 47 44 40 38 36 35 36 32
51 63 69 73 72 73 68 68 67 71 74 77 77 84 85 86 84 85 87 87 86 84 81 78 74 72 69 67 63 58 56 54 53 52 48 47 43 44 38 35 34 32 29
50 59 61 67 69 70 73 73 75 71 71 72 70 73 80 82 86 93 95 93 90 87 85 81 77 73 70 67 62 55 55 55 53 50 49 50 46 43 37 37 34 30 32
51 59 63 65 67 62 59 66 73 73 69 70 71 69 73 82 88 92 92 89 89 88 86 82 78 72 68 65 61 55 57 53 53 53 52 49 46 44 36 37 35 31 32
59 58 62 64 66 71 71 70 61 62 67 68 69 68 66 67 72 79 82 81 80 79 82 80 77 73 66 66 65 58 56 56 56 54 54 51 50 45 38 38 34 32 35
75 72 73 73 69 69 70 72 75 68 62 59 62 63 67 66 65 68 71 74 74 74 77 75 75 73 70 71 69 61 56 55 57 56 51 49 46 44 41 36 36 34 33
74 72 71 75 72 73 75 77 76 79 77 72 62 52 59 61 61 60 63 66 67 70 72 74 77 78 75 70 66 63 55 58 56 52 50 47 44 42 40 35 35 37 33
65 65 67 70 72 69 73 77 82 84 81 78 74 70 55 65 63 56 57 59 61 64 71 75 78 78 74 68 67 62 55 58 56 54 51 46 43 44 40 37 37 37 36
63 66 70 75 78 81 82 81 81 80 83 82 75 69 69 63 60 68 74 67 65 65 67 72 73 76 76 73 68 73 72 67 61 59 54 51 54 50 43 40 39 36 39
71 76 78 83 86 85 86 86 85 80 81 81 77 73 69 66 65 63 64 68 69 71 64 65 67 66 62 59 61 67 67 67 58 54 55 55 54 48 45 41 38 38 41
Wind_Direction_850mb
235 238 237 234 234 232 232 234 235 243 245 247 252 251 253 256 253 257 267 281 287 282 271 259 255 244 248 252 249 256 274 279 272 288 308 290 277 270 260 274 292 288 261
245 243 240 237 239 242 246 243 245 247 251 253 255 253 254 251 252 255 264 278 289 281 270 260 250 242 242 240 246 260 263 269 272 272 280 314 252 280 266 302 264 251 277
254 252 248 253 248 247 249 248 252 252 253 254 250 252 249 251 255 256 262 274 282 278 267 255 244 239 236 238 244 250 259 262 256 267 253 282 252 275 263 210 221 240 258
253 257 257 255 251 256 252 256 257 258 255 254 253 252 252 252 257 257 258 272 276 272 263 251 242 236 235 235 240 251 257 264 252 250 254 241 253 253 251 265 269 266 281
261 267 267 259 258 253 253 261 261 258 258 257 255 250 248 247 236 251 257 268 270 264 256 249 239 233 231 235 244 253 257 258 253 256 250 245 237 247 251 270 264 274 278
283 284 284 276 269 269 270 269 266 262 255 252 250 246 246 245 247 250 258 265 263 257 250 245 237 233 233 238 247 255 252 250 251 257 259 258 241 230 236 254 266 271 272
285 284 277 277 283 283 282 277 272 266 258 250 246 244 242 241 246 249 256 261 260 252 245 240 235 232 234 239 244 244 246 248 251 253 258 260 261 260 254 254 254 254 269
297 311 307 298 289 282 275 282 280 272 259 255 251 248 245 242 245 250 255 257 252 245 240 234 231 231 235 236 239 244 248 250 254 259 264 269 271 272 269 261 257 263 257
320 329 335 332 322 308 293 288 285 280 265 258 250 246 245 245 249 253 253 250 246 242 235 232 233 234 235 239 243 247 249 254 258 260 261 268 274 275 275 270 266 255 247
345 353 348 335 326 321 314 306 295 284 271 258 253 251 249 250 252 252 250 246 242 237 234 235 234 234 238 242 246 248 251 254 255 257 260 265 268 272 273 273 271 263 246
8 16 13 1 343 322 312 306 299 289 276 260 251 250 251 252 251 249 246 242 239 236 236 236 236 238 241 243 245 248 251 254 255 255 257 260 264 268 271 272 270 265 254
353 353 343 337 334 322 310 302 294 285 279 264 255 253 254 252 253 250 244 241 238 237 237 238 239 241 244 246 247 249 250 251 253 257 260 262 264 265 266 267 266 263 253
319 314 316 318 306 316 299 306 302 291 280 265 258 254 253 253 252 247 243 239 237 238 240 242 245 247 247 246 246 248 252 255 257 258 260 262 262 262 261 260 258 257 253
305 308 309 309 310 305 301 299 294 292 289 280 271 261 256 254 252 249 246 243 243 244 245 246 247 247 247 247 248 250 252 254 257 258 259 258 257 256 254 252 250 249 250
297 301 305 304 300 298 291 295 294 282 282 284 272 270 263 259 257 256 253 250 249 249 249 249 249 249 249 249 251 252 254 254 254 253 252 250 251 255 253 250 252 254 255
313 321 320 316 311 307 302 297 295 297 283 280 273 269 264 262 258 255 253 250 249 249 249 249 250 250 251 252 252 251 250 250 249 248 248 249 247 246 249 248 253 255 255
339 337 339 337 326 319 313 304 300 300 295 290 274 270 266 261 257 254 252 251 249 249 249 248 248 249 251 251 249 247 247 247 246 246 246 245 245 245 244 247 253 256 258
334 338 338 335 336 339 324 312 302 300 296 292 284 274 270 264 263 260 257 253 251 250 250 251 250 250 250 251 248 246 245 245 244 245 245 246 244 242 243 244 247 250 251
322 321 322 325 326 331 332 333 322 311 308 296 289 284 275 267 264 266 263 257 254 252 251 250 249 248 249 250 249 244 242 240 240 243 243 242 243 241 241 241 240 244 254
323 320 318 315 314 317 321 318 323 325 318 306 293 279 272 267 265 264 264 262 256 252 250 249 248 249 249 250 248 242 238 239 241 239 237 240 239 239 237 237 236 238 253
321 321 317 314 314 316 317 313 313 319 324 319 305 294 285 275 268 265 264 262 258 254 251 248 246 246 244 245 245 243 239 239 238 237 235 234 235 241 235 234 239 239 248
319 318 315 314 315 314 313 309 307 310 302 301 308 306 297 285 273 266 262 259 255 251 248 245 243 243 241 243 243 239 234 234 236 235 233 232 233 236 233 235 240 244 250
316 318 318 315 314 312 312 311 310 306 303 301 294 298 303 296 285 272 264 258 254 250 247 244 242 241 238 235 235 237 229 226 228 230 231 229 224 225 235 235 239 250 258
320 323 324 324 325 323 318 313 307 305 303 300 299 291 280 284 293 282 270 262 257 254 251 246 242 241 238 233 230 228 221 222 220 222 223 224 217 220 231 232 242 254 259
322 323 322 320 320 319 318 317 313 306 302 299 296 291 286 278 266 264 273 275 271 265 258 259 254 248 244 239 237 234 227 227 223 219 214 211 211 217 227 231 242 252 260
318 317 315 313 312 310 308 307 306 304 300 298 297 292 287 281 276 269 262 257 257 257 250 248 248 250 250 247 240 232 228 227 225 217 212 214 222 226 234 239 247 252 255